GSAT0103 (GALILEO-FM3) (38857 NORAD) Tracking and Keplerian Element Data

This shows tracking and keplerian element data for the satellite.

Feedback or suggestion? Click here.




ElementValue
Catalog38857
NameGSAT0103 (GALILEO-FM3)
Epoch Orbit3788
Epoch Day317.10346488
Epoch Year2018
RAAN177.8301
Inclination54.9132
Eccentricity0.0001471
Argument of Perigee249.6362
Mean Anonmoly110.4384
Mean Motion1.70473946
Decay Rate3.9E-07
L11 38857U 12055A 18317.10346488 .00000039 00000-0 00000+0 0 9999
L22 38857 54.9132 177.8301 0001471 249.6362 110.4384 1.70473946 37887

Live tracking and technical data element details for GSAT0103 (GALILEO-FM3) (NORAD 38857). GSAT0103 (GALILEO-FM3) can be tracked NOW for your location showing map with azimuth and elevation plus other details from your city location.

Track the satellite on the map from your city or location and see movement details for azimuth, elevation, latitude, longitude, range, height, and movement on the map or in text.







IsCatalogInMostPopularTable: catalog: 38857, numindb: 71
Update: records affected: 1



GetName: 38857 GSAT0103 (GALILEO-FM3)

Hit Count: updated at: Fri, 16 Nov 2018 05:59:02 GMT